カタログに戻る

SES 14

運用中通信GEO
NORAD 43175·PAYLOAD·🇱🇺 Luxembourg

打ち上げ Jan 25, 2018 から Guiana Space Centre

Loading…

TLE

最新Source: CelesTrak SupGP

元期: Sep 13, 2026, 23:44 UTC

1 43175C 18012B   26256.98958333 -.00000206  00000+0  00000+0 0  2564
2 43175   0.0308  37.4091 0001035 119.3858 144.9352  1.00272343    12

AllMySatでSES 14をリアルタイム追跡

Download on the App Store